Weather in Twenterand

Netherlands     52°26′41″N   6°35′39″E
temp.,
°C
wind,
m/s
gust,
m/s
humid.,
%
clouds,
%
prec.,
mm/h
press.,
hPa
HPBL,
m
20 april, tue
tue2023:00+9e237549 0.0 102049
02:00+9e227799 0.0 101921
05:00+9ne117861 0.0 101915
08:00+9ene23845 0.0 101991
11:00+14ne22665 0.0 1018680
14:00+16n225614 0.8 10171332
17:00+17nnw235128 1.2 10161462
20:00+13nne34654 1.3 101651
21 april, wed
wed2123:00+9ne34754 0.0 101766
02:00+7ne33765 0.0 101738
05:00+6nne227748 0.0 101721
08:00+7n2470100 0.0 1017138
11:00+10n577699 0.0 1018677
14:00+11nnw6662100 0.0 10191402
17:00+10nnw78506 0.0 10191472
20:00+6n696444 0.0 1021879
22 april, thu
thu2223:00+3nw3672100 0.0 1022149
02:00+2wnw3873100 0.0 1022180
05:00+1wnw387744 0.0 1022167
08:00+5wnw41069100 0.0 1023730
11:00+9nnw8105396 0.1 10231839
14:00+9nnw8105392 0.1 10241957
17:00+8nw5965100 0.1 10241435
20:00+7nw6107510 0.3 1025913
23 april, fri
fri2323:00+3wnw39945 0.0 1026204
02:00+2nw38945 0.0 1026160
05:00+2nw35945 0.0 102696
08:00+4nw25865 0.0 1027161
11:00+10nnw456041 0.0 10281322
14:00+13nnw45487 0.0 10271769
17:00+13n444821 0.0 10261598
20:00+9n476920 0.0 1027206
24 april, sat
sat2423:00+4nne368853 0.0 102898
02:00+3n229442 0.0 102730
05:00+2n2294100 0.0 102720
08:00+4nne128697 0.0 1027127
11:00+9ne336440 0.0 1026828
14:00+13ne335374 0.0 10251266
17:00+13nne5556100 0.0 10241243
20:00+9nne5966100 0.0 1024360